Location: Henham
(51.9333°N, 0.2500°E)
Time: 23:56:46
(UTC+00:00)

STARLINK-35 - Pass Details

Date: 23 October 2019
Orbit: 548 x 551 km, 53.0° (Epoch: 15 November)

Event Time Altitude Azimuth Distance (km) Brightness Sun altitude
Rises 18:12:13 0° 279° (W) 2,719 9.0 -13.5°
Reaches altitude 10° 18:14:27 10° 280° (W) 1,825 7.6 -13.8°
Maximum altitude 18:18:37 80° 7° (N) 563 3.6 -14.4°
Enters shadow 18:20:50 27° 93° (E) 1,086 4.5 -14.8°
